TimeCST,TemperatureF,Dew PointF,Humidity,Sea Level PressureIn,VisibilityMPH,Wind Direction,Wind SpeedMPH,Gust SpeedMPH,PrecipitationIn,Events,Conditions,WindDirDegrees,DateUTC
12:53 AM,35.1,33.1,92,29.84,9.0,WNW,21.9,28.8,0.01,,Overcast,300,2012-01-01 06:53:00
1:39 AM,35.6,33.8,93,29.86,10.0,NW,25.3,33.4,0.01,,Overcast,310,2012-01-01 07:39:00
2:53 AM,35.1,30.0,82,29.96,10.0,NW,27.6,35.7,N/A,,Overcast,310,2012-01-01 08:53:00
3:53 AM,34.0,28.9,82,30.03,10.0,NW,25.3,38.0,N/A,,Scattered Clouds,310,2012-01-01 09:53:00
4:53 AM,33.1,26.1,75,30.09,10.0,NW,26.5,36.8,N/A,,Clear,320,2012-01-01 10:53:00
5:53 AM,30.9,25.0,79,30.14,10.0,NW,21.9,29.9,N/A,,Clear,310,2012-01-01 11:53:00
6:53 AM,30.0,24.1,79,30.19,10.0,WNW,17.3,24.2,N/A,,Clear,300,2012-01-01 12:53:00
7:53 AM,28.9,21.9,75,30.25,10.0,NW,16.1,-,N/A,,Clear,310,2012-01-01 13:53:00
8:53 AM,30.9,21.9,69,30.30,10.0,NW,18.4,26.5,N/A,,Clear,310,2012-01-01 14:53:00
9:53 AM,32.0,21.0,64,30.32,10.0,NW,18.4,27.6,N/A,,Clear,310,2012-01-01 15:53:00
10:53 AM,35.1,19.0,52,30.34,10.0,NW,26.5,34.5,N/A,,Clear,310,2012-01-01 16:53:00
11:53 AM,36.0,16.0,44,30.33,10.0,NW,25.3,39.1,N/A,,Clear,310,2012-01-01 17:53:00
12:53 PM,37.0,16.0,42,30.33,10.0,WNW,26.5,38.0,N/A,,Clear,300,2012-01-01 18:53:00
1:53 PM,37.0,16.0,42,30.33,10.0,NW,26.5,36.8,N/A,,Clear,310,2012-01-01 19:53:00
2:53 PM,37.0,14.0,39,30.35,10.0,WNW,28.8,34.5,N/A,,Clear,300,2012-01-01 20:53:00
3:53 PM,37.0,10.0,33,30.38,10.0,WNW,24.2,38.0,0.00,,Clear,300,2012-01-01 21:53:00
4:53 PM,34.0,12.9,42,30.41,10.0,NW,19.6,28.8,N/A,,Clear,310,2012-01-01 22:53:00
5:53 PM,32.0,16.0,52,30.43,10.0,NW,19.6,31.1,N/A,,Clear,310,2012-01-01 23:53:00
6:53 PM,30.0,17.1,59,30.46,10.0,NW,15.0,-,N/A,,Clear,310,2012-01-02 00:53:00
7:53 PM,28.9,16.0,58,30.48,10.0,NW,17.3,-,N/A,,Clear,320,2012-01-02 01:53:00
8:53 PM,27.0,16.0,63,30.49,10.0,NW,12.7,-,N/A,,Clear,310,2012-01-02 02:53:00
9:53 PM,28.0,14.0,56,30.48,10.0,NW,21.9,29.9,N/A,,Clear,310,2012-01-02 03:53:00
11:53 PM,26.1,15.1,63,30.48,10.0,NW,18.4,27.6,N/A,,Clear,320,2012-01-02 05:53:00